"2010-12-12 00:00:00",415021,14.89,58.45,3.636,1.158,5.448,99.29469,-2.497,-1.237,36.75,0,109.4,13.61,-1.75,20.5
"2010-12-12 00:00:30",415022,16.73,58.22,3.703,0.661,5.713,99.2862,-2.519,-1.247,36.71,0,109.4,13.61,-1.78,20.2
"2010-12-12 00:01:00",415023,16.95,58.51,1.741,0.899,5.624,99.2862,-2.519,-1.268,36.67,0,109.4,13.62,-1.78,20.5
"2010-12-12 00:01:30",415024,16.17,59.22,3.362,0.814,5.625,99.2862,-2.519,-1.242,36.7,0,109.4,13.62,-1.78,21.2
"2010-12-12 00:02:00",415025,15.53,57.94,3.521,0.896,5.637,99.2862,-2.519,-1.272,36.84,0,109.4,13.62,-1.78,19.9
"2010-12-12 00:02:30",415026,16.02,56.17,4.739,1.049,5.963,99.2862,-2.519,-1.293,36.86,0,109.4,13.62,-1.78,18.2
"2010-12-12 00:03:00",415027,17.17,56.06,2.441,0.7,5.809,99.27685,-2.543,-1.282,36.73,0,109.3,13.61,-1.80,18.1
"2010-12-12 00:03:30",415028,17.07,56.47,2.11,0.828,5.824,99.26325,-2.577,-1.295,36.83,0,109.4,13.61,-1.83,18.5
"2010-12-12 00:04:00",415029,16.85,56.12,3.416,0.673,6.007,99.25956,-2.587,-1.293,36.81,0,109.4,13.61,-1.84,18.1
"2010-12-12 00:04:30",415030,17.02,56.17,2.72,0.805,6.082,99.25758,-2.592,-1.308,36.85,0,109.4,13.61,-1.85,18.2
"2010-12-12 00:05:00",415031,16.86,57.89,3.258,0.541,5.965,99.25786,-2.591,-1.324,36.86,0,109.4,13.61,-1.85,19.9
"2010-12-12 00:05:30",415032,16.31,58.41,3.371,0.84,5.671,99.26012,-2.585,-1.307,36.89,0,109.4,13.61,-1.84,20.4
"2010-12-12 00:06:00",415033,16.55,55.46,2.932,0.738,5.872,99.25842,-2.59,-1.32,36.91,0,109.4,13.61,-1.85,17.5
"2010-12-12 00:06:30",415034,16.79,55.07,2.689,0.75,5.959,99.25868,-2.589,-1.319,36.92,0,109.4,13.61,-1.85,17.1
"2010-12-12 00:07:00",415035,16.8,56.73,3.842,0.565,5.74,99.26292,-2.578,-1.325,36.93,0,109.4,13.61,-1.84,18.7
"2010-12-12 00:07:30",415036,16.2,58,3.46,0.832,5.79,99.26488,-2.573,-1.292,36.98,0,109.4,13.61,-1.83,20.0
"2010-12-12 00:08:00",415037,15.85,58.88,4.457,0.846,5.717,99.26514,-2.572,-1.324,36.98,0,109.4,13.62,-1.83,20.9
"2010-12-12 00:08:30",415038,15.93,58.88,2.493,0.797,5.794,99.26598,-2.57,-1.319,37,0,109.4,13.62,-1.83,20.9
"2010-12-12 00:09:00",415039,16.09,58.47,3.204,0.677,5.667,99.2688,-2.563,-1.33,37.03,0,109.4,13.62,-1.82,20.5
"2010-12-12 00:09:30",415040,15.95,59.05,2.854,0.844,5.615,99.2688,-2.563,-1.31,37.08,0,109.4,13.62,-1.82,21.0
"2010-12-12 00:10:00",415041,16.39,57.99,3.342,0.756,5.831,99.27104,-2.557,-1.337,37.08,0,109.4,13.62,-1.81,20.0
"2010-12-12 00:10:30",415042,16.2,58.11,3.3,0.661,5.865,99.27048,-2.559,-1.339,37.11,0,109.4,13.62,-1.82,20.1
"2010-12-12 00:11:00",415043,16.19,56.28,3.573,0.595,5.703,99.26964,-2.561,-1.329,37.18,0,109.4,13.62,-1.82,18.3
"2010-12-12 00:11:30",415044,15.77,57.01,4.285,0.751,5.72,99.27217,-2.555,-1.324,37.32,0,109.4,13.62,-1.81,19.0
"2010-12-12 00:12:00",415045,15.82,59.42,2.954,0.86,5.704,99.27161,-2.556,-1.351,37.4,0,109.4,13.62,-1.81,21.4
"2010-12-12 00:12:30",415046,16.2,58.07,2.354,0.765,5.918,99.27274,-2.553,-1.35,37.34,0,109.4,13.62,-1.81,20.1
"2010-12-12 00:13:00",415047,16.09,58.84,1.983,0.725,5.702,99.27215,-2.555,-1.379,37.37,0,109.3,13.62,-1.81,20.8
"2010-12-12 00:13:30",415048,16.15,59.17,3.375,0.556,5.683,99.26677,-2.568,-1.359,37.44,0,109.4,13.62,-1.83,21.2
"2010-12-12 00:14:00",415049,15.94,57.74,3.949,0.728,5.7,99.2662,-2.57,-1.369,37.59,0,109.4,13.62,-1.83,19.7
"2010-12-12 00:14:30",415050,16.65,57.02,3.246,0.755,6.009,99.26109,-2.583,-1.371,37.58,0,109.4,13.62,-1.84,19.0
"2010-12-12 00:15:00",415051,16.64,57.43,2.672,0.679,5.749,99.25967,-2.586,-1.37,37.55,0,109.4,13.62,-1.84,19.4
"2010-12-12 00:15:30",415052,15.77,56.88,3.164,1.019,5.526,99.25542,-2.597,-1.352,37.7,0,109.4,13.62,-1.85,18.9
"2010-12-12 00:16:00",415053,16.05,55.85,3.178,0.829,5.65,99.25145,-2.607,-1.37,37.84,0,109.4,13.62,-1.86,17.8
"2010-12-12 00:16:30",415054,16.42,56.47,3.627,0.633,5.955,99.25032,-2.61,-1.379,37.64,0,109.4,13.62,-1.87,18.5
"2010-12-12 00:17:00",415055,16.17,57.44,1.916,0.751,5.734,99.25031,-2.61,-1.387,37.64,0,109.4,13.62,-1.87,19.4
"2010-12-12 00:17:30",415056,16.36,57.12,3.476,0.671,5.827,99.24918,-2.613,-1.356,37.6,0,109.4,13.62,-1.87,19.1
"2010-12-12 00:18:00",415057,16.26,57.11,4.257,0.385,5.994,99.24804,-2.616,-1.368,37.64,0,109.4,13.62,-1.87,19.1
"2010-12-12 00:18:30",415058,16.18,55.96,3.194,0.678,5.947,99.24915,-2.613,-1.378,37.71,0,109.4,13.62,-1.87,18.0
"2010-12-12 00:19:00",415059,16.45,56.32,1.922,0.703,5.772,99.24718,-2.618,-1.38,37.69,0,109.4,13.62,-1.88,18.3
"2010-12-12 00:19:30",415060,16.52,55.83,3.327,0.699,5.813,99.24802,-2.616,-1.373,37.73,0,109.4,13.62,-1.87,17.8
"2010-12-12 00:20:00",415061,16.47,57.08,3.426,0.684,5.803,99.24802,-2.616,-1.383,37.79,0,109.4,13.62,-1.87,19.1
"2010-12-12 00:20:30",415062,16.21,56.55,4.076,0.541,6.093,99.24858,-2.615,-1.378,37.83,0,109.4,13.62,-1.87,18.5
"2010-12-12 00:21:00",415063,16.17,56.85,1.718,0.738,5.716,99.24548,-2.623,-1.389,37.91,0,109.4,13.62,-1.88,18.8
"2010-12-12 00:21:30",415064,16.15,56.62,3.443,0.598,5.703,99.24745,-2.618,-1.379,37.9,0,109.4,13.62,-1.87,18.6
"2010-12-12 00:22:00",415065,16.07,56,3.686,0.717,5.75,99.2466,-2.62,-1.368,37.94,0,109.4,13.62,-1.88,18.0
"2010-12-12 00:22:30",415066,15.99,55.53,3.415,0.645,5.873,99.24717,-2.618,-1.387,38.11,0,109.4,13.62,-1.88,17.5
"2010-12-12 00:23:00",415067,16.09,57.66,3.283,0.635,5.729,99.24577,-2.622,-1.389,38.14,0,109.4,13.62,-1.88,19.7
"2010-12-12 00:23:30",415068,16.1,56.6,3.39,0.685,5.73,99.24773,-2.617,-1.385,38.19,0,109.4,13.62,-1.87,18.6
"2010-12-12 00:24:00",415069,15.97,56.69,3.446,0.731,5.621,99.24857,-2.615,-1.4,38.25,0,109.4,13.62,-1.87,18.7
"2010-12-12 00:24:30",415070,15.35,57.94,3.924,0.737,5.644,99.2483,-2.615,-1.39,38.42,0,109.4,13.62,-1.87,19.9
"2010-12-12 00:25:00",415071,16.3,56.95,3.453,0.662,5.664,99.2497,-2.612,-1.39,38.44,0,109.3,13.63,-1.87,19.0
"2010-12-12 00:25:30",415072,15.95,57.3,3.198,0.646,5.781,99.24745,-2.618,-1.393,38.42,0,109.4,13.63,-1.87,19.3
"2010-12-12 00:26:00",415073,15.74,56.37,2.964,0.737,5.621,99.24745,-2.618,-1.408,38.42,0,109.4,13.63,-1.87,18.4
"2010-12-12 00:26:30",415074,15.75,56.43,3.51,0.709,5.835,99.24461,-2.625,-1.421,38.48,0,109.4,13.63,-1.88,18.4
"2010-12-12 00:27:00",415075,15.08,57.88,4.496,0.78,5.477,99.23073,-2.66,-1.434,38.65,0,109.4,13.63,-1.92,19.9
"2010-12-12 00:27:30",415076,15.87,57.52,2.895,0.83,5.583,99.21912,-2.69,-1.41,38.86,0,109.4,13.63,-1.95,19.5
"2010-12-12 00:28:00",415077,15.76,58.96,2.919,0.784,5.628,99.21486,-2.701,-1.451,38.78,0,109.4,13.63,-1.96,21.0
"2010-12-12 00:28:30",415078,15.99,58.2,3.265,0.657,5.706,99.21627,-2.697,-1.437,38.79,0,109.4,13.63,-1.95,20.2
"2010-12-12 00:29:00",415079,15.85,59.25,2.654,0.649,5.673,99.21683,-2.696,-1.459,38.77,0,109.4,13.63,-1.95,21.2
"2010-12-12 00:29:30",415080,15.48,59.03,3.811,0.612,5.561,99.21767,-2.693,-1.442,38.82,0,109.4,13.63,-1.95,21.0
"2010-12-12 00:30:00",415081,15.36,58.62,4.123,0.613,5.738,99.21739,-2.694,-1.455,38.89,0,109.4,13.63,-1.95,20.6
"2010-12-12 00:30:30",415082,15.36,60.18,3.365,0.64,5.726,99.21767,-2.693,-1.471,38.97,0,109.4,13.63,-1.95,22.2
"2010-12-12 00:31:00",415083,15.24,59.61,3.723,0.662,5.55,99.21739,-2.694,-1.484,39.09,0,109.4,13.63,-1.95,21.6
"2010-12-12 00:31:30",415084,14.95,59.73,4.341,0.922,5.409,99.20918,-2.715,-1.484,39.35,0,109.4,13.63,-1.97,21.7
"2010-12-12 00:32:00",415085,15.41,59.97,3.851,0.733,5.277,99.18594,-2.774,-1.495,39.59,0,109.4,13.63,-2.03,22.0
"2010-12-12 00:32:30",415086,13.53,60.8,5.276,0.912,5.242,99.18395,-2.779,-1.524,39.72,0,109.4,13.63,-2.04,22.8
"2010-12-12 00:33:00",415087,14.84,59.87,4.382,0.887,5.153,99.18253,-2.783,-1.552,39.96,0,109.3,13.63,-2.04,21.9
"2010-12-12 00:33:30",415088,15.19,59.42,3.282,0.758,5.266,99.15702,-2.848,-1.563,40.05,0,109.4,13.63,-2.11,21.4
"2010-12-12 00:34:00",415089,14.97,58.9,3.583,0.712,5.282,99.14994,-2.866,-1.593,40.18,0,109.4,13.63,-2.12,20.9
"2010-12-12 00:34:30",415090,15.43,59.2,3.526,0.7,5.577,99.14938,-2.867,-1.611,40.14,0,109.4,13.63,-2.13,21.2
"2010-12-12 00:35:00",415091,15.21,60.51,3.32,0.703,5.261,99.14994,-2.866,-1.615,40.2,0,109.4,13.63,-2.12,22.5
"2010-12-12 00:35:30",415092,15.08,63.45,4.542,0.871,5.109,99.14513,-2.878,-1.604,40.46,0,109.4,13.63,-2.14,25.5
"2010-12-12 00:36:00",415093,15.5,61.19,3.609,0.664,5.297,99.12756,-2.923,-1.643,40.53,0,109.4,13.63,-2.18,23.2
"2010-12-12 00:36:30",415094,15.33,63.49,4.452,0.748,5.308,99.11707,-2.95,-1.674,40.66,0,109.4,13.63,-2.21,25.5
"2010-12-12 00:37:00",415095,15.2,61.68,3.537,0.575,5.311,99.11537,-2.954,-1.698,40.73,0,109.4,13.62,-2.21,23.7
"2010-12-12 00:37:30",415096,15.02,62.93,3.597,0.902,5.141,99.10489,-2.981,-1.707,40.84,0,109.4,13.63,-2.24,24.9
"2010-12-12 00:38:00",415097,15.47,61.44,4.261,0.638,5.23,99.08619,-3.028,-1.726,40.95,0,109.4,13.63,-2.29,23.4
"2010-12-12 00:38:30",415098,14.85,63.52,4.961,0.987,5.281,99.08194,-3.039,-1.768,41.04,0,109.4,13.63,-2.30,25.5
"2010-12-12 00:39:00",415099,15.62,61.83,3.804,0.616,5.394,99.08194,-3.039,-1.792,41.08,0,109.4,13.63,-2.30,23.8
"2010-12-12 00:39:30",415100,15.65,63.09,3.942,0.6,5.276,99.07628,-3.054,-1.799,41.13,0,109.4,13.63,-2.31,25.1
"2010-12-12 00:40:00",415101,15.05,63.72,3.875,0.639,5.191,99.06097,-3.093,-1.831,41.27,0,109.4,13.63,-2.35,25.7
"2010-12-12 00:40:30",415102,15.14,62.25,3.913,0.736,5.308,99.05049,-3.119,-1.845,41.35,0,109.4,13.63,-2.38,24.2
"2010-12-12 00:41:00",415103,15.35,63.16,3.829,0.761,5.143,99.04794,-3.126,-1.864,41.43,0,109.3,13.63,-2.38,25.2
"2010-12-12 00:41:30",415104,15.41,63.07,3.46,0.663,5.139,99.04794,-3.126,-1.885,41.51,0,109.4,13.63,-2.38,25.1
"2010-12-12 00:42:00",415105,15.71,62.81,3.946,0.678,5.293,99.04171,-3.142,-1.893,41.55,0,109.4,13.63,-2.40,24.8
"2010-12-12 00:42:30",415106,15.64,62.54,4.079,0.819,5.403,99.02725,-3.179,-1.913,41.56,0,109.4,13.64,-2.44,24.5
"2010-12-12 00:43:00",415107,15.46,63.54,3.032,0.812,5.1,99.01733,-3.204,-1.938,41.61,0,109.3,13.64,-2.46,25.5
"2010-12-12 00:43:30",415108,15.59,63.84,3.486,0.837,5.142,99.01421,-3.212,-1.932,41.65,0,109.4,13.64,-2.47,25.8
"2010-12-12 00:44:00",415109,15.64,62.87,3.619,1.023,5.176,99.01393,-3.212,-1.957,41.67,0,109.4,13.64,-2.47,24.9
"2010-12-12 00:44:30",415110,15.48,63.55,4.693,0.755,5.346,99.01393,-3.212,-1.953,41.72,0,109.4,13.64,-2.47,25.5
"2010-12-12 00:45:00",415111,15.54,63.11,3.123,0.551,5.294,99.01393,-3.212,-1.973,41.76,0,109.3,13.64,-2.47,25.1
"2010-12-12 00:45:30",415112,14.8,63.26,4.895,0.831,5.066,99.01393,-3.212,-1.974,41.82,0,109.4,13.64,-2.47,25.3
"2010-12-12 00:46:00",415113,14.86,63,3.559,0.71,5.027,99.00742,-3.229,-1.988,41.91,0,109.4,13.64,-2.49,25.0
"2010-12-12 00:46:30",415114,15.15,62.75,3.643,0.901,5.225,98.98985,-3.274,-2.017,41.92,0,109.4,13.64,-2.53,24.8
"2010-12-12 00:47:00",415115,15.75,62.01,3.325,0.589,5.162,98.98589,-3.284,-2.02,41.92,0,109.4,13.64,-2.54,24.0
"2010-12-12 00:47:30",415116,15.74,62.25,3.3,0.718,5.21,98.98306,-3.291,-2.016,41.97,0,109.4,13.64,-2.55,24.2
"2010-12-12 00:48:00",415117,15.41,62.41,3.772,0.803,5.122,98.9822,-3.293,-2.032,41.97,0,109.4,13.64,-2.55,24.4
"2010-12-12 00:48:30",415118,15.66,61.66,3.409,0.778,5.334,98.9805,-3.298,-2.045,41.95,0,109.4,13.64,-2.56,23.7
"2010-12-12 00:49:00",415119,15.23,63.75,3.88,0.791,5.041,98.98022,-3.298,-2.062,42.05,0,109.3,13.64,-2.56,25.8
"2010-12-12 00:49:30",415120,15.55,61.73,3.539,0.728,5.159,98.97994,-3.299,-2.038,42.11,0,109.4,13.64,-2.56,23.7
"2010-12-12 00:50:00",415121,15.52,61.77,3.561,0.967,5.184,98.97994,-3.299,-2.076,42.13,0,109.4,13.64,-2.56,23.8
"2010-12-12 00:50:30",415122,15.62,63.11,4.104,0.583,5.275,98.97994,-3.299,-2.085,42.17,0,109.4,13.64,-2.56,25.1
"2010-12-12 00:51:00",415123,15,64,4.207,0.971,5.117,98.97994,-3.299,-2.091,42.21,0,109.4,13.65,-2.56,26.0
"2010-12-12 00:51:30",415124,14.61,64.93,4.785,0.73,5.095,98.97484,-3.312,-2.093,42.37,0,109.4,13.64,-2.57,26.9
"2010-12-12 00:52:00",415125,14.55,63.86,4.865,0.702,4.986,98.95755,-3.356,-2.098,42.45,0,109.4,13.64,-2.62,25.9
"2010-12-12 00:52:30",415126,14.53,64.33,4.123,0.575,5.144,98.94678,-3.384,-2.119,42.54,0,109.4,13.64,-2.64,26.3
"2010-12-12 00:53:00",415127,14.89,64.43,3.553,0.594,4.999,98.94593,-3.386,-2.129,42.62,0,109.3,13.63,-2.65,26.4
"2010-12-12 00:53:30",415128,15.29,62,3.902,0.642,4.991,98.94593,-3.386,-2.131,42.68,0,109.4,13.63,-2.65,24.0
"2010-12-12 00:54:00",415129,15.09,62.63,3.099,0.851,4.96,98.94593,-3.386,-2.148,42.76,0,109.4,13.64,-2.65,24.6
"2010-12-12 00:54:30",415130,15.2,62.51,3.427,0.759,5.27,98.94593,-3.386,-2.167,42.8,0,109.4,13.63,-2.65,24.5
"2010-12-12 00:55:00",415131,15.58,62.59,3.899,0.468,5.13,98.94593,-3.386,-2.159,42.82,0,109.4,13.63,-2.65,24.6
"2010-12-12 00:55:30",415132,15.66,62.53,4.437,0.625,5.254,98.94621,-3.385,-2.165,42.85,0,109.4,13.64,-2.64,24.5
"2010-12-12 00:56:00",415133,15.99,61.98,4.21,0.595,5.39,98.94621,-3.385,-2.161,42.82,0,109.4,13.64,-2.64,24.0
"2010-12-12 00:56:30",415134,15.81,61.46,4.298,0.6,5.407,98.94621,-3.385,-2.172,42.85,0,109.4,13.64,-2.64,23.5
"2010-12-12 00:57:00",415135,15.91,61.97,4.026,0.657,5.389,98.94678,-3.384,-2.161,42.9,0,109.3,13.64,-2.64,24.0
"2010-12-12 00:57:30",415136,15.87,62.15,4.472,0.591,5.304,98.94621,-3.385,-2.146,42.97,0,109.4,13.65,-2.64,24.2
"2010-12-12 00:58:00",415137,15.53,62.37,4.03,0.793,5.284,98.94678,-3.384,-2.173,43.08,0,109.4,13.65,-2.64,24.4
"2010-12-12 00:58:30",415138,15.77,62.26,4.059,0.633,5.285,98.9465,-3.384,-2.164,43.06,0,109.4,13.65,-2.64,24.3
"2010-12-12 00:59:00",415139,15.78,62.03,4,0.667,5.235,98.94479,-3.389,-2.159,43.22,0,109.4,13.65,-2.65,24.0
"2010-12-12 00:59:30",415140,15.8,62.93,4.23,0.392,5.139,98.94332,-3.392,-2.154,43.34,0,109.4,13.65,-2.65,24.9
"2010-12-12 01:00:00",415141,15.88,62.32,4.075,0.538,5.27,98.93426,-3.415,-2.175,43.4,0,109.4,13.65,-2.68,24.3
"2010-12-12 01:00:30",415142,15.82,63.4,3.48,0.718,5.172,98.92888,-3.429,-2.172,43.48,0,109.4,13.65,-2.69,25.4
"2010-12-12 01:01:00",415143,16.27,62.73,2.877,0.691,5.235,98.93562,-3.412,-2.18,43.33,0,109.3,13.65,-2.67,24.7
"2010-12-12 01:01:30",415144,16.17,61.86,4.168,0.564,5.277,98.93674,-3.409,-2.183,43.25,0,109.4,13.65,-2.67,23.9
"2010-12-12 01:02:00",415145,15.96,62.43,3.871,0.611,5.259,98.93787,-3.406,-2.19,43.28,0,109.4,13.65,-2.67,24.4
"2010-12-12 01:02:30",415146,15.75,62.79,3.821,0.565,5.306,98.93729,-3.408,-2.18,43.4,0,109.4,13.65,-2.67,24.8
"2010-12-12 01:03:00",415147,16.13,62.34,3.821,0.443,5.233,98.93897,-3.403,-2.195,43.45,0,109.3,13.65,-2.66,24.3
"2010-12-12 01:03:30",415148,16.15,61.2,3.873,0.697,5.408,98.93899,-3.403,-2.175,43.26,0,109.4,13.65,-2.66,23.2
"2010-12-12 01:04:00",415149,16.06,61.7,3.491,0.677,5.389,98.94772,-3.381,-2.185,43.06,0,109.4,13.65,-2.64,23.7
"2010-12-12 01:04:30",415150,16.15,60.64,4.219,0.422,5.547,98.96301,-3.342,-2.165,43.01,0,109.3,13.65,-2.60,22.6
"2010-12-12 01:05:00",415151,15.74,62.21,3.47,0.67,5.131,98.96529,-3.336,-2.161,43.18,0,109.3,13.65,-2.60,24.2
"2010-12-12 01:05:30",415152,15.45,62.52,4.023,0.716,5.039,98.96696,-3.332,-2.139,43.61,0,109.4,13.65,-2.59,24.5
"2010-12-12 01:06:00",415153,15.99,62.2,3.85,0.594,5.26,98.96526,-3.336,-2.151,43.62,0,109.4,13.65,-2.60,24.2
"2010-12-12 01:06:30",415154,16.18,60.5,3.883,0.581,5.489,98.96413,-3.339,-2.16,43.31,0,109.4,13.65,-2.60,22.5
"2010-12-12 01:07:00",415155,16.32,60.79,3.797,0.616,5.396,98.96976,-3.325,-2.142,43.1,0,109.3,13.65,-2.58,22.8
"2010-12-12 01:07:30",415156,15.83,61.41,3.911,0.6,5.141,98.96921,-3.326,-2.14,43.21,0,109.4,13.65,-2.59,23.4
"2010-12-12 01:08:00",415157,15.37,62.28,3.841,0.585,5.086,98.97005,-3.324,-2.136,43.47,0,109.4,13.65,-2.58,24.3
"2010-12-12 01:08:30",415158,15.37,63.42,3.697,0.667,5.077,98.97005,-3.324,-2.144,43.76,0,109.4,13.65,-2.58,25.4
"2010-12-12 01:09:00",415159,15.79,63.36,3.612,0.562,5.168,98.96182,-3.345,-2.141,43.74,0,109.3,13.65,-2.60,25.4
"2010-12-12 01:09:30",415160,16.11,61.46,3.708,0.605,5.252,98.96097,-3.347,-2.139,43.56,0,109.3,13.65,-2.61,23.5
"2010-12-12 01:10:00",415161,16.02,61.18,4.213,0.517,5.3,98.96721,-3.331,-2.142,43.56,0,109.3,13.65,-2.59,23.2
"2010-12-12 01:10:30",415162,15.65,62.75,3.653,0.592,5.295,98.96635,-3.334,-2.151,43.68,0,109.4,13.65,-2.59,24.8
"2010-12-12 01:11:00",415163,15.65,62.22,2.776,0.616,5.276,98.9621,-3.344,-2.158,43.49,0,109.3,13.65,-2.60,24.2
"2010-12-12 01:11:30",415164,15.71,61.64,4.188,0.559,5.334,98.9655,-3.336,-2.142,43.39,0,109.3,13.65,-2.60,23.6
"2010-12-12 01:12:00",415165,15.86,60.95,3.746,0.562,5.273,98.9672,-3.331,-2.17,43.39,0,109.3,13.65,-2.59,23.0
"2010-12-12 01:12:30",415166,15.76,61.02,3.88,0.545,5.365,98.9706,-3.323,-2.149,43.39,0,109.3,13.65,-2.58,23.0
"2010-12-12 01:13:00",415167,15.55,62.15,3.43,0.563,5.129,98.9723,-3.319,-2.133,43.51,0,109.3,13.65,-2.58,24.2
"2010-12-12 01:13:30",415168,15.81,59.69,4.303,0.566,5.254,98.97202,-3.319,-2.141,43.55,0,109.3,13.65,-2.58,21.7
"2010-12-12 01:14:00",415169,16.05,59.98,4.278,0.611,5.334,98.97314,-3.316,-2.14,43.44,0,109.3,13.65,-2.58,22.0
"2010-12-12 01:14:30",415170,15.74,60.96,4.237,0.534,5.419,98.97285,-3.317,-2.129,43.45,0,109.3,13.65,-2.58,23.0
"2010-12-12 01:15:00",415171,15.53,60.88,3.688,0.57,5.153,98.97285,-3.317,-2.133,43.56,0,109.3,13.65,-2.58,22.9
"2010-12-12 01:15:30",415172,15.38,61.32,4.078,0.61,5.118,98.97173,-3.32,-2.137,43.74,0,109.3,13.65,-2.58,23.3
"2010-12-12 01:16:00",415173,15.74,61.5,4.655,0.575,5.127,98.96181,-3.345,-2.134,43.81,0,109.3,13.66,-2.60,23.5
"2010-12-12 01:16:30",415174,15.87,61.16,4.362,0.531,5.322,98.95273,-3.368,-2.133,43.78,0,109.3,13.65,-2.63,23.2
"2010-12-12 01:17:00",415175,15.97,61.91,3.752,0.398,5.254,98.94877,-3.378,-2.157,43.74,0,109.3,13.66,-2.64,23.9
"2010-12-12 01:17:30",415176,15.53,62.75,4.312,0.691,5.137,98.94422,-3.39,-2.134,43.91,0,109.3,13.66,-2.65,24.8
"2010-12-12 01:18:00",415177,15.52,61.75,4.398,0.669,5.079,98.93941,-3.402,-2.171,44.08,0,109.3,13.66,-2.66,23.8
"2010-12-12 01:18:30",415178,15.95,61.8,4.833,0.621,5.376,98.94053,-3.399,-2.169,44,0,109.3,13.66,-2.66,23.8
"2010-12-12 01:19:00",415179,16.04,60.48,3.717,0.516,5.464,98.9408,-3.399,-2.194,43.79,0,109.3,13.66,-2.66,22.5
"2010-12-12 01:19:30",415180,15.92,57.15,4.249,0.567,5.734,98.9408,-3.399,-2.181,43.33,0,109.3,13.66,-2.66,19.2
"2010-12-12 01:20:00",415181,15.88,58.69,4.552,0.585,5.511,98.94165,-3.397,-2.189,43,0,109.3,13.66,-2.66,20.7
"2010-12-12 01:20:30",415182,14.82,61.71,4.608,0.931,5.046,98.94418,-3.39,-2.185,43.63,0,109.3,13.66,-2.65,23.7
"2010-12-12 01:21:00",415183,14.08,66.37,4.233,0.697,4.774,98.94361,-3.392,-2.191,44.06,0,109.3,13.66,-2.65,28.4
"2010-12-12 01:21:30",415184,13.94,64.4,4.973,0.914,4.801,98.92009,-3.452,-2.204,44.32,0,109.3,13.66,-2.71,26.4
"2010-12-12 01:22:00",415185,15.17,61.22,3.787,0.923,4.916,98.90988,-3.478,-2.222,44.28,0,109.3,13.66,-2.74,23.2
"2010-12-12 01:22:30",415186,15.2,61.37,4.081,0.784,4.949,98.90763,-3.483,-2.246,44.12,0,109.3,13.66,-2.74,23.4
"2010-12-12 01:23:00",415187,14.73,60.96,4.2,0.58,5.261,98.90876,-3.48,-2.259,44.09,0,109.3,13.66,-2.74,23.0
"2010-12-12 01:23:30",415188,14.43,60.41,4.311,0.75,4.89,98.9082,-3.482,-2.264,44.24,0,109.3,13.66,-2.74,22.4
"2010-12-12 01:24:00",415189,14.25,62.79,4.661,0.752,5.096,98.90649,-3.486,-2.25,44.39,0,109.3,13.66,-2.75,24.8
"2010-12-12 01:24:30",415190,14.08,64.54,5.488,0.803,4.749,98.88918,-3.53,-2.285,44.63,0,109.3,13.65,-2.79,26.5
"2010-12-12 01:25:00",415191,14.55,64.63,3.888,0.653,4.784,98.87841,-3.558,-2.326,44.66,0,109.3,13.65,-2.82,26.6
"2010-12-12 01:25:30",415192,14.4,62.33,4.395,0.517,4.636,98.87502,-3.566,-2.319,44.83,0,109.3,13.65,-2.83,24.3
"2010-12-12 01:26:00",415193,14.21,61.79,5.035,0.698,4.686,98.86934,-3.581,-2.353,45.15,0,109.3,13.65,-2.84,23.8
"2010-12-12 01:26:30",415194,14.8,60.69,4.502,0.758,5.109,98.85601,-3.615,-2.364,44.9,0,109.3,13.65,-2.88,22.7
"2010-12-12 01:27:00",415195,15.17,59.72,3.752,0.47,5.324,98.85178,-3.626,-2.385,44.41,0,109.3,13.65,-2.89,21.7
"2010-12-12 01:27:30",415196,14.86,61.02,4.216,0.515,5.143,98.85572,-3.615,-2.382,44.2,0,109.3,13.65,-2.88,23.0
"2010-12-12 01:28:00",415197,13.56,63.62,4.212,0.682,4.82,98.85263,-3.623,-2.384,44.8,0,109.3,13.65,-2.88,25.6
"2010-12-12 01:28:30",415198,13.48,66.17,3.912,0.863,4.609,98.84411,-3.645,-2.395,45.34,0,109.3,13.65,-2.91,28.2
"2010-12-12 01:29:00",415199,14.09,63.62,3.655,0.72,4.888,98.84353,-3.647,-2.408,45.1,0,109.3,13.65,-2.91,25.6
"2010-12-12 01:29:30",415200,14.11,64.3,3.754,0.759,4.843,98.84297,-3.648,-2.431,44.93,0,109.3,13.66,-2.91,26.3
"2010-12-12 01:30:00",415201,14.02,64.16,3.622,0.634,4.494,98.84241,-3.649,-2.435,45.17,0,109.3,13.66,-2.91,26.2
"2010-12-12 01:30:30",415202,13.16,64.74,4.624,0.757,4.57,98.83475,-3.669,-2.452,45.66,0,109.3,13.66,-2.93,26.7
"2010-12-12 01:31:00",415203,13.04,65.81,2.405,0.825,4.523,98.8149,-3.719,-2.479,45.59,0,109.3,13.66,-2.98,27.8
"2010-12-12 01:31:30",415204,13.03,68.45,4.077,0.77,4.57,98.80981,-3.732,-2.488,45.71,0,109.3,13.66,-2.99,30.4
"2010-12-12 01:32:00",415205,12.76,70.45,4.985,0.712,4.283,98.80952,-3.733,-2.482,46.06,0,109.3,13.66,-2.99,32.4
"2010-12-12 01:32:30",415206,12.62,70.09,4.069,0.646,4.2,98.78883,-3.786,-2.531,46.34,0,109.3,13.66,-3.05,32.1
"2010-12-12 01:33:00",415207,12.73,70.46,2.952,0.693,4.029,98.77551,-3.82,-2.553,46.5,0,109.3,13.66,-3.08,32.5
"2010-12-12 01:33:30",415208,12.4,69.83,3.904,0.605,3.97,98.77551,-3.82,-2.57,46.85,0,109.3,13.66,-3.08,31.8
"2010-12-12 01:34:00",415209,12.11,71.53,4.257,0.521,3.928,98.76021,-3.859,-2.611,47.24,0,109.3,13.66,-3.12,33.5
"2010-12-12 01:34:30",415210,11.9,71.69,3.972,0.592,4.042,98.74149,-3.906,-2.642,47.66,0,109.3,13.66,-3.17,33.7
"2010-12-12 01:35:00",415211,12.04,72.15,4.13,0.646,3.996,98.7412,-3.907,-2.654,47.36,0,109.3,13.66,-3.17,34.2
"2010-12-12 01:35:30",415212,12.26,74.55,4.01,0.579,3.891,98.72591,-3.946,-2.673,47.6,0,109.3,13.66,-3.21,36.6
"2010-12-12 01:36:00",415213,11.62,75.44,4.201,0.526,3.789,98.70975,-3.987,-2.719,48.19,0,109.3,13.66,-3.25,37.4
"2010-12-12 01:36:30",415214,11.49,76.91,4.286,0.599,3.782,98.70719,-3.994,-2.74,48.72,0,109.3,13.66,-3.26,38.9
"2010-12-12 01:37:00",415215,11.15,79.36,3.477,0.649,3.485,98.68991,-4.038,-2.758,49.58,0,109.3,13.66,-3.30,41.4
"2010-12-12 01:37:30",415216,10.76,80.5,4.141,0.691,3.311,98.6729,-4.081,-2.8,50.8,0,109.3,13.67,-3.34,42.5
"2010-12-12 01:38:00",415217,10.59,80.5,3.922,0.677,3.336,98.64285,-4.158,-2.856,51.49,0,109.3,13.67,-3.42,42.5
"2010-12-12 01:38:30",415218,10.26,81.3,4.148,0.673,3.327,98.6284,-4.194,-2.908,51.8,0,109.3,13.67,-3.46,43.3
"2010-12-12 01:39:00",415219,10.22,82.6,4.511,0.549,3.172,98.60572,-4.252,-2.955,52.18,0,109.3,13.67,-3.52,44.6
"2010-12-12 01:39:30",415220,10.14,83.8,4.514,0.654,3.099,98.57795,-4.323,-3.001,52.51,0,109.3,13.66,-3.59,45.8
"2010-12-12 01:40:00",415221,9.58,82.4,4.83,0.861,2.934,98.5632,-4.36,-3.043,53,0,109.3,13.67,-3.62,44.4
"2010-12-12 01:40:30",415222,9.56,85,5.31,1.093,2.795,98.53657,-4.428,-3.11,53.41,0,109.3,13.67,-3.69,47.0
"2010-12-12 01:41:00",415223,9.8,82.1,4.58,0.768,2.909,98.50453,-4.51,-3.155,53.55,0,109.3,13.66,-3.77,44.1
"2010-12-12 01:41:30",415224,9.48,81.2,4.069,0.719,2.779,98.49886,-4.524,-3.221,53.74,0,109.3,13.66,-3.79,43.2
"2010-12-12 01:42:00",415225,9.19,82.4,4.704,0.735,2.63,98.47817,-4.577,-3.263,54.08,0,109.3,13.66,-3.84,44.4
"2010-12-12 01:42:30",415226,9.03,86,4.466,0.814,2.578,98.46938,-4.599,-3.297,54.58,0,109.3,13.66,-3.86,48.0
"2010-12-12 01:43:00",415227,9.28,86.9,4.564,0.736,2.816,98.45068,-4.647,-3.33,55,0,109.3,13.66,-3.91,48.9
"2010-12-12 01:43:30",415228,9.08,84.9,4.769,0.695,2.653,98.43594,-4.685,-3.388,55.16,0,109.3,13.66,-3.95,46.9
"2010-12-12 01:44:00",415229,8.84,86.3,8.84,0.994,2.527,98.43338,-4.691,-3.409,55.27,0,109.3,13.66,-3.96,48.3
"2010-12-12 01:44:30",415230,8.42,80.4,5.241,1.039,2.273,98.40589,-4.761,-3.461,55.66,0,109.3,13.66,-4.03,42.4
"2010-12-12 01:45:00",415231,9.33,84.9,5.317,0.577,2.59,98.40136,-4.773,-3.513,56.01,0,109.3,13.66,-4.04,46.9
"2010-12-12 01:45:30",415232,9.14,83.5,4.042,0.789,2.255,98.39059,-4.8,-3.508,56.51,0,109.3,13.66,-4.06,45.5
"2010-12-12 01:46:00",415233,8.61,86.7,6.992,0.978,2.126,98.36819,-4.857,-3.553,56.69,0,109.3,13.67,-4.12,48.7
"2010-12-12 01:46:30",415234,9.83,80.1,4.645,0.591,2.513,98.36734,-4.859,-3.578,56.56,0,109.3,13.67,-4.12,42.1